This is the latest recevied weather packets stored in our database for station/object 5B4APJ-13. If no packets are shown the sender has not sent any weather packets the latest 1 day(s).
| Time | Temp. | Humidity | Pressure | Rain* | Wind** | Luminosity | Snow |
|---|---|---|---|---|---|---|---|
| 1778078222 | 17.22° C | 55% | 1016.2 hPa | 0 mm | 2.24 m/s, 148° | 63 W/m² | - |
| 1778075223 | 18.33° C | 52% | 1015.7 hPa | 0 mm | 1.79 m/s, 224° | 159 W/m² | - |
| 1778074923 | 18.89° C | 51% | 1016 hPa | 0 mm | 1.34 m/s, 34° | 185 W/m² | - |
| 1778074023 | 18.33° C | 52% | 1015.8 hPa | 0 mm | 2.24 m/s, 268° | 184 W/m² | - |
| 1778073723 | 18.33° C | 51% | 1016 hPa | 0 mm | 1.34 m/s, 209° | 211 W/m² | - |
| 1778072522 | 19.44° C | 47% | 1015.7 hPa | 0 mm | 1.34 m/s, 235° | 305 W/m² | - |
| 1778072223 | 18.89° C | 52% | 1016.3 hPa | 0 mm | 1.79 m/s, 239° | 665 W/m² | - |
| 1778071022 | 19.44° C | 54% | 1016.1 hPa | 0 mm | 2.24 m/s, 209° | 282 W/m² | - |
| 1778070422 | 19.44° C | 54% | 1016.3 hPa | 0 mm | 2.24 m/s, 192° | 784 W/m² | - |
| 1778069822 | 18.89° C | 54% | 1016.2 hPa | 0 mm | 1.34 m/s, 236° | 344 W/m² | - |
| 1778068622 | 19.44° C | 53% | 1016.4 hPa | 0 mm | 2.24 m/s, 188° | 359 W/m² | - |
| 1778067422 | 18.89° C | 52% | 1016.6 hPa | 0 mm | 2.24 m/s, 257° | 802 W/m² | - |
| 1778065622 | 20° C | 48% | 1016.5 hPa | 0 mm | 2.68 m/s, 99° | 301 W/m² | - |
| 1778065022 | 18.89° C | 53% | 1017 hPa | 0 mm | 0.89 m/s, 245° | 852 W/m² | - |
| 1778063523 | 18.33° C | 53% | 1016.7 hPa | 0 mm | 1.79 m/s, 137° | 905 W/m² | - |
| 1778062923 | 18.89° C | 51% | 1016.9 hPa | 0 mm | 4.02 m/s, 174° | 865 W/m² | - |
| 1778062623 | 18.89° C | 51% | 1017 hPa | 0 mm | 1.79 m/s, 75° | 904 W/m² | - |
| 1778062323 | 17.78° C | 53% | 1017 hPa | 0 mm | 0.89 m/s, 180° | 1107 W/m² | - |
| 1778061422 | 18.33° C | 53% | 1017.1 hPa | 0 mm | 1.34 m/s, 252° | 192 W/m² | - |
| 1778060823 | 18.33° C | 52% | 1017.4 hPa | 0 mm | 2.68 m/s, 102° | 278 W/m² | - |
| 1778060523 | 19.44° C | 50% | 1017.3 hPa | 0 mm | 0.89 m/s, 269° | 362 W/m² | - |
| 1778059922 | 18.33° C | 53% | 1017.1 hPa | 0 mm | 2.24 m/s, 148° | 829 W/m² | - |
| 1778058722 | 17.78° C | 53% | 1017.4 hPa | 0 mm | 1.34 m/s, 97° | 342 W/m² | - |
| 1778058423 | 17.78° C | 54% | 1017.1 hPa | 0 mm | 0.89 m/s, 96° | 165 W/m² | - |
| 1778058122 | 17.78° C | 53% | 1017 hPa | 0 mm | 1.34 m/s, 120° | 124 W/m² | - |
* Rain latest hour (hover to see other rain measurements)
** Current wind speed in m/s (hover to see current wind gust speed)